{"data":{"norad_id":60121,"intl_designator":"2024-118J","name":"STARLINK-11119 [DTC]","alt_names":[],"object_type":"PAYLOAD","status":"ACTIVE","operator":null,"country":"US","launch_date":"2024-06-24","launch_site_code":"AFWTR","launch_vehicle":null,"mission":null,"orbit_class":"UNKNOWN","rcs_meters":null,"size_class":null,"mass_kg":null,"dimensions":null,"purposes":["comms"],"wikipedia_slug":null,"has_3d_model":false,"image_url":null,"decayed_at":null,"tle_current":{"epoch":"2026-09-21T20:02:39.484608Z","epoch_age_seconds":66996,"freshness":"FRESH","line1":"1 60121U 24118J   26264.83517922 -.00054769  00000+0 -44538-3 0  9992","line2":"2 60121  53.1597 334.0775 0001488   5.2491 354.8542 15.69965744128809","mean_motion":15.69965744,"eccentricity":0.0001488,"inclination_deg":53.1597,"raan_deg":334.0775,"arg_perigee_deg":5.2491,"mean_anomaly_deg":354.8542,"bstar":-0.00044538,"rev_number":12880,"period_min":91.721746509649,"perigee_km":357.99252309049,"apogee_km":359.99749357617,"semimajor_km":6737.1320083333,"source":"CELESTRAK","updated_at":"2026-09-22T09:00:49.156132Z"}}}